Track GLOBALSTAR M003 now! 10-day predictions GLOBALSTAR M003 is classified as:
1 25165U 98008D 22228.20367181 -.00000044 00000-0 48916-3 0 9998 2 25165 51.9549 158.3722 0008109 7.7201 136.1439 12.11849208107693